www.pogodaiklimat.ru

Погода и климат >> Архив погоды >> Россия >> Коми >> Мутный Материк


ПОГОДА в Мутном Материке

  • Прогноз погоды в Мутном Материке
  • Монитор погоды в Мутном Материке

АРХИВ ПОГОДЫ в Мутном Материке

Время (UTC), дата Ветер
(напр.,м/с)
 
Видим.   Явления Облачность Т
(С)
Тd
(С)
f
(%)
Тe
(С)
Тes
(С)
Комфортность P
(гПа)
Po
(гПа)
Тmin
(С)
Tmax
(С)
R
(мм)
R24
(мм)
S
(см)
15 9.09 ЮЗ 4 50 км 9/0
[Ac trans Cc]
+10.0 +5.1 72 +7 +7 1026.2 1017.4 +11.4
18 9.09 ЮЗ 5 50 км 10/0
[Ac und]
+9.3 +5.4 77 +6 +6 1023.9 1015.2
21 9.09 ЮЗ 3 50 км 10/0
[Ac und]
+9.9 +6.0 77 +8 +8 1021.5 1012.8
00 10.09 З 4 50 км в посл. час дождь 10/0
[As op]
+11.3 +8.9 85 +9 +9 1020.5 1011.9
03 10.09 З 6-12
{12}
50 км 10/10 900 м
[Sc]
+12.1 +8.0 76 +9 +9 1019.8 1011.2 +9.0 0.3
06 10.09 СЗ 6-10
{14}
50 км 10/10 750 м
[Sc]
+11.5 +7.6 77 +9 +9 1020.8 1012.2
09 10.09 СЗ 6-10
{13}
50 км 10/10 750 м
[Sc]
+12.1 +8.0 76 +9 +9 1023.2 1014.5
12 10.09 СЗ 4
{10}
50 км {ливн. осадки} 9/9 540 м
[Cb cap]
+11.9 +7.4 74 +10 +10 1025.5 1016.9
15 10.09 С 1 50 км {ливн. осадки} 10/10 570 м
[Cb cap]
+9.7 +7.9 89 +9 +9 1027.1 1018.4 +12.4 0.0
18 10.09 СЗ 2 50 км {ливн. осадки} 9/3 300 м
[Cb cap Ac As]
+8.1 +7.2 94 +6 +6 1027.3 1018.5
21 10.09 ЮЗ 2 50 км 10/10 700 м
[Sc]
+8.3 +7.5 95 +6 +6 1026.8 1018.0
00 11.09 Ю 2 50 км {туман} 10/0
[Ac As]
+8.1 +7.5 96 +6 +6 1026.2 1017.4
03 11.09 ЮЗ 4 50 км 9/3 600 м
[Sc Ac As]
+8.8 +8.0 95 +6 +6 1023.7 1015.0 +7.8 0.7
06 11.09 Ю 3 50 км 9/3 600 м
[Sc Ac trans]
+11.3 +9.5 89 +9 +10 1022.0 1013.4
09 11.09 ЮЗ 3 50 км 10/0
[Ac As]
+13.1 +9.9 81 +12 +13 1020.5 1011.9
12 11.09 З 1 10 км слаб. дождь 10/0 800 м
[As op]
+12.4 +11.2 92 +12 +13 1019.8 1011.2
15 11.09 СЗ 2 50 км {дождь} 10/1 600 м
[Sc diur, vesp Ac lent Cs]
+12.1 +11.1 94 +11 +11 1020.0 1011.4 +13.4 1
18 11.09 СЗ 3 50 км {дождь} 8/5 600 м
[Sc Ac trans]
+10.1 +8.8 92 +8 +8 1021.2 1012.5
21 11.09 ЮЗ 2 500 м туман ?/? +10.1 +9.3 95 +8 +8 1021.2 1012.5
00 12.09 ЮЗ 2 500 м туман ?/? +10.3 +9.5 95 +9 +9 1021.2 1012.5
03 12.09 ЮЗ 4 200 м туман ?/? +9.5 +8.8 95 +6 +6 1021.2 1012.5 +9.3
06 12.09 Ю 4 50 км в посл. час туман 10/10 800 м
[Sc]
+10.3 +9.7 96 +8 +8 1020.0 1011.3
09 12.09 Ю 5 50 км {дождь} 9/9 720 м
[Sc]
+14.3 +12.6 90 +13 +13 1017.5 1009.0
12 12.09 Ю 2 50 км {дождь} 9/9 720 м
[Sc]
+16.1 +13.5 85 +16 +16 1015.9 1007.5
15 12.09 Ю 2 50 км 8/0
[Ac trans Cs]
+15.4 +13.7 90 +15 +15 1013.6 1005.2 +16.5 0.0
18 12.09 Ю 2 50 км 6/3 600 м
[Sc Ac trans Cs]
+14.2 +12.9 92 +14 +14 1012.1 1003.7
21 12.09 ЮЗ 4 50 км 4/1 600 м
[Sc Ac trans Ci fib]
+13.1 +11.8 92 +11 +11 1010.5 1002.0
00 13.09 ЮЗ 4 50 км 4/0
[Ac und Cs]
+11.9 +10.2 89 +10 +10 1009.8 1001.3
03 13.09 Ю 2 4000 м дымка 9/0
[Ac und Cs]
+10.5 +9.7 95 +9 +9 1008.7 1000.2 +10.5
06 13.09 Ю 3 50 км 10/8 330 м
[Frnb As op]
+12.1 +11.1 94 +10 +10 1008.2 999.7
09 13.09 Ю 4 50 км {ливн. осадки} 9/6 540 м
[Cb cap As trans Ci fib]
+15.2 +12.3 83 +14 +15 1007.7 999.3
12 13.09 ЮЗ 4 50 км в посл. час ливневой дождь 9/8 500 м
[Cb cap Cs]
+15.6 +10.4 71 +15 +15 1007.0 998.6
15 13.09 Ю 2 50 км 9/8 750 м
[Cb cap Ci fib]
+14.4 +9.9 74 +14 +14 1006.0 997.6 +17.0 0.0
18 13.09 ЮЗ 2 50 км 9/3 600 м
[Sc Ac trans Cc]
+12.9 +9.7 81 +12 +12 1005.4 996.9
21 13.09 ЮЗ 3 50 км 8/0
[Ac trans Cc]
+10.7 +8.9 89 +9 +9 1004.7 996.2
00 14.09 ЮЗ 2 50 км 9/0
[Ac trans]
+9.8 +8.8 93 +8 +8 1004.2 995.7
03 14.09 ЮЗ 2 50 км 9/4 600 м
[Sc Ac As Ci fib]
+9.8 +9.0 95 +8 +8 1004.0 995.5 +9.6
06 14.09 Ю 2 50 км 10/5 600 м
[Sc Ac As]
+11.3 +10.2 93 +10 +10 1003.8 995.3
09 14.09 Ю 3 50 км 6/4 600 м
[Cb cap Cc]
+15.4 +10.9 75 +15 +17 1003.3 994.9
12 14.09 ЮВ 1 50 км 8/5 600 м
[Cb cap Ac trans Cc]
+17.4 +9.2 59 +18 +19 1002.2 993.9
15 14.09 В 2 50 км 9/3 600 м
[Sc diur, vesp Ac cuf Cs]
+14.3 +9.5 73 +14 +14 1001.4 993.0 +17.6
18 14.09 В 3 50 км 9/4 600 м
[Sc Ac trans Ci fib]
+11.9 +9.3 84 +10 +10 999.1 990.7
21 14.09 В 3 50 км 10/0
[Ac As]
+11.5 +10.1 91 +10 +10 996.1 987.7
00 15.09 ЮВ 3 50 км в посл. час дождь 10/8 300 м
[Frnb As op]
+11.8 +11.0 95 +10 +10 993.3 984.9
03 15.09 Ю 7-10
{14}
50 км {дождь} 9/8 1230 м
[Sc Ac As Ci fib]
+9.9 +7.6 86 +6 +6 993.1 984.6 +9.9 6
06 15.09 Ю 9-16
{17}
50 км {дождь} 10/8 870 м
[Sc As op]
+9.9 +6.2 78 +6 +6 992.7 984.2 +8.9
09 15.09 Ю 8-11
{15}
20 км слаб. дождь 10/4 300 м
[Frnb As op]
+9.4 +5.4 76 +5 +5 992.6 984.2
12 15.09 Ю 8-12
{14}
50 км {дождь} 10/0
[As op]
+9.1 +5.4 78 +5 +5 992.4 983.9
15 15.09 Ю 7-12
{14}
20 км слаб. дождь 10/9 330 м
[Frnb As op]
+8.2 +5.3 82 +4 +4 991.2 982.7 +10.3 0.3
18 15.09 Ю 9-13
{14}
10 км слаб. дождь 10/0 960 м
[As op]
+7.8 +4.9 82 +3 +3 989.0 980.5
21 15.09 Ю 8-12
{14}
4000 м слаб. дождь 10/0 750 м
[As op]
+6.4 +5.1 91 +1 +1 987.6 979.1
00 16.09 Ю 8-11
{13}
20 км слаб. дождь 10/0 840 м
[As op]
+6.2 +4.2 87 +1 +1 986.8 978.3
03 16.09 Ю 7-15
{15}
20 км слаб. дождь 10/0 630 м
[As op]
+5.8 +4.7 93 0 0 986.0 977.5 +5.7 2
06 16.09 Ю 7-11
{15}
10 км слаб. дождь 10/0 600 м
[As op]
+5.7 +4.6 93 0 0 986.2 977.7 +5.4
09 16.09 ЮЗ 7-11
{14}
20 км слаб. дождь 10/9 400 м
[Frnb As op]
+5.6 +4.4 92 0 0 987.5 979.0

 

Местоположение метеостанции Мутный Материк (Коми, Россия): широта 65.95 долгота 55.17 высота над уровнем моря 71 м.

В архиве по умолчанию представлена погода в Мутном Материке за последнюю неделю. Архивные данные за месяц целиком и за предыдущие месяцы, начиная с января 2011 года, Вы можете получить, выбрав интересующий диапазон дат из раскрывающегося списка и нажав кнопку "Ввод!".


*Определитесь, кто Вы:
робот инопланетянин человек

Внимание! Время в таблицах - всемирное. Для получения местного времени необходимо прибавить поправку, которая равна 3 ч.

Смотрите также архив погоды в соседних городах и на ближайших метеорологических станциях:

Погода в Усть-Усе (Коми, Россия) (79 км)
Погода в Усинске (Коми, Россия) (100 км)
Погода в Ижме (Коми, Россия) (120 км)
Погода в Окуневом Носу (Коми, Россия) (121 км)
Погода в Печоре (Коми, Россия) (128 км)
Погода в Усть-Цильме (Коми, Россия) (145 км)
Погода в Ираеле (Коми, Россия) (159 км)
Погода в Кедва-Воме (Коми, Россия) (206 км)
Погода в Хорей-Вере (Ненецкий АО, Россия) (207 км)
Погода в Нарьян-Маре (Ненецкий АО, Россия) (209 км)

Пояснения к столбцам:

Ветер - указаны скорость ветра в м/с - средняя за 10 мин, порывы в срок и между сроками (в фигурных скобках) и направление, откуда дует ветер: С - северный, СВ - северо-восточный, В - восточный, ЮВ - юго-восточный, Ю - южный, ЮЗ - юго-западный, З - западный, СЗ - северо-западный.
Видимость - горизонтальная дальность видимости в метрах или километрах. При видимости от 1 до 10 км при отсутствии осадков обычно наблюдается дымка, при ухудшении видимости до 1 км и менее - туман. В сухую погоду видимость может ухудшаться дымом, пылью или мглою.
Явления - указаны атмосферные явления, наблюдавшиеся в срок или в последний час перед сроком; фигурными скобками обозначены явления, наблюдавшиеся между сроками (за 1-3 часа до срока); квадратными скобками обозначены град или гололедные отложения с указанием их диаметра в мм.
Облачность - указаны через наклонную черту общая и нижняя облачность в баллах и высота нижней границы облаков в метрах; квадратными скобками обозначены формы облаков: Ci - перистые, Cs - перисто-слоистые, Cc - перисто-кучевые, Ac - высококучевые, As - высокослоистые, Sc - слоисто-кучевые, Ns - слоисто-дождевые, Cu - кучевые, Cb - кучево-дождевые. Подробнее классификацию облаков см. в Атласе облаков (PDF).
T - Температура воздуха - температура, измеренная на высоте 2 м над землей.
Td - Температура точки росы - температура, при понижении до которой содержащийся в воздухе водяной пар достигнет насыщения.
f - Относительная влажность воздуха - влажноcть воздуха, измеренная на высоте 2 м над землей.
Te - Эффективная температура - температура, которую ощущает одетый по сезону человек в тени. Характеристика душности погоды. При расчете учитывается влияние влажности воздуха и скорости ветра на теплоощущения человека.
Tes - Эффективная температура на солнце - температура, которую ощущает человек, с поправкой на солнечный нагрев. Характеристика знойности погоды. Зависит от высоты солнца над горизонтом, облачности и скорости ветра. Ночью, в пасмурную погоду, а также при ветре 12 м/с и более поправка равна нулю.
P - Атмосферное давление - приведенное к уровню моря атмосферное давление.
Po - Атмосферное давление - измеренное на уровне метеостанции атмосферное давление.
Tmin - Минимальная температура - минимум температуры воздуха на высоте 2 м над землей.
Tmax - Максимальная температура - максимум температуры воздуха на высоте 2 м над землей.
R - Количество осадков - Количество выпавших осадков за период времени, мм. При наведении курсора мыши на число - период времени, за который выпало указанное количество осадков.
R24 - Количество осадков - Количество выпавших осадков за 24 часа, мм.
S - Снежный покров - Высота снежного покрова, см. При наведении курсора мыши на число - состояние снежного покрова и степень покрытия местности в баллах.